Regional Weather Roundup
Issued by NWS

Home | Current Version | Previous Version | Graphics & Text | Print | Product List | Glossary On
Versions: 1 2 3 4 5 6 7 8 9 10 11 12 13 14 15 16 17 18 19 20 21 22 23 24 25 26 27 28 29 30 31 32 33 34 35 36 37 38 39 40 41 42 43 44 45 46 47 48 49 50
343
ASUS43 KDTX 280501
RWRMI
MICHIGAN HOURLY REGIONAL WEATHER ROUNDUP
NATIONAL WEATHER SERVICE DETROIT/PONTIAC MI
100 AM EDT SUN MAY 28 2017

NOTE: "FAIR" INDICATES FEW OR NO CLOUDS BELOW 12,000 FEET WITH NO
SIGNIFICANT WEATHER AND/OR OBSTRUCTION TO VISIBILITY.

MIZ047>049-052>055-059>063-066>070-074>076-081>083-280600-
SOUTHEAST LOWER MICHIGAN

CITY           SKY/WX    TMP DP  RH WIND       PRES   REMARKS
ADRIAN         CLOUDY    62  56  80 N3        29.89R
ALMA           CLEAR     57  56  97 CALM      29.87R
ANN ARBOR      CLOUDY    59  57  93 CALM      29.87R
BAD AXE        CLEAR     55  49  81 SE5       29.89R
CARO           PTCLDY    58  52  79 SE3       29.86F
DETROIT CITY   CLOUDY    60  52  74 CALM      29.88S
DETROIT        CLOUDY    62  54  74 CALM      29.88S
FLINT          CLOUDY    61  56  83 SW6       29.87S
GROSSE ILE     CLOUDY    60  53  79 CALM      29.86S
HILLSDALE      CLOUDY    55  54  94 CALM      29.88R
HOWELL         CLOUDY    61  55  79 SW3       29.89R

CITY           SKY/WX    TMP DP  RH WIND       PRES   REMARKS
JACKSON        MOCLDY    64  56  75 CALM      29.88R
LAMBERTVILLE   CLOUDY    63  54  72 CALM      29.86S
LANSING        PTCLDY    61  55  81 S5        29.88R
LAPEER         FAIR      57  54  88 CALM      29.88S
MASON          PTCLDY    61  57  84 CALM      29.89R
MONROE         CLOUDY    63  54  73 CALM      29.86R
MT. CLEMENS    CLOUDY    59  55  85 SE3       29.87F
PONTIAC        CLOUDY    60  54  80 S3        29.87F
PORT HOPE        N/A     57  50  77 S8        29.86S
PORT HURON     CLEAR     54  52  94 CALM      29.88F FOG
TRI CITIES     CLEAR     61  57  87 SE5       29.87R
MIDLAND        FAIR      58  54  85 CALM      29.85S
TROY           PTCLDY    61  54  75 CALM      29.89R
SAGINAW HB     PTCLDY    61  54  77 S3        29.86R
$$
MIZ043>046-050>051-056>058-064>065-071>073-077>080-280600-
SOUTHWEST LOWER MICHIGAN

CITY           SKY/WX    TMP DP  RH WIND       PRES   REMARKS
BATTLE CREEK   CLEAR     63  57  81 SE5       29.86F
BENTON HARBOR  PTCLDY    57  54  89 CALM      29.83F
BIG RAPIDS     PTCLDY    57  52  84 CALM      29.84F
COLDWATER      CLOUDY    57  57  99 CALM      29.86F
FREMONT        FAIR      56  51  82 CALM      29.84F
HOLLAND        CLOUDY    58  54  86 CALM      29.85F
GRAND RAPIDS   CLEAR     60  57  89 CALM      29.85F
IONIA          FAIR      64  57  77 S6        29.85F
KALAMAZOO      PTCLDY    63  57  81 CALM      29.84F
LUDINGTON      CLOUDY    53  51  93 CALM      29.84S
MARSHALL       PTCLDY    61  59  94 CALM      29.86F
MOUNT PLEASANT CLEAR     57  55  94 CALM      29.85S
MUSKEGON       CLOUDY    59  53  80 CALM      29.84F
SOUTH HAVEN    PTCLDY    57  55  95 CALM      29.84F
$$
MIZ016>042-280600-
NORTHERN LOWER MICHIGAN

CITY           SKY/WX    TMP DP  RH WIND       PRES   REMARKS
ALPENA         PTCLDY    56  51  84 S3        29.87R
BEAVER ISLAND  CLOUDY    52  50  94 CALM      29.83R
BELLAIRE       CLOUDY    55  53  93 CALM      29.84R
CADILLAC       CLOUDY    56  54  93 CALM      29.86S
CHARLEVOIX     CLOUDY    55  53  93 E3        29.86S
FRANKFORT      PTCLDY    53  49  84 CALM      29.82F
GAYLORD        MOCLDY    60  53  77 CALM      29.86R
GRAYLING       CLEAR     55  53  94 CALM      29.87S
HARBOR SPRINGS CLOUDY    56  55  97 NE3       29.84R
HOUGHTON LAKE  MOCLDY    60  54  80 VRB3      29.86R
MANISTEE       CLOUDY    52  50  93 E3        29.83F
OSCODA         PTCLDY    53  49  89 CALM      29.87R
PELLSTON       CLOUDY    52  50  93 CALM      29.84R
ROGERS CITY    CLOUDY    61  52  73 S8        29.85S
TRAVERSE CITY  PTCLDY    56  53  90 CALM      29.82S
$$
MIZ007>008-015-280600-
EASTERN UPPER MICHIGAN

CITY           SKY/WX    TMP DP  RH WIND       PRES   REMARKS
KINROSS        CLOUDY    57  49  74 E3        29.84S
MACKINAC ISLAN PTCLDY    51  49  93 CALM      29.83S
NEWBERRY       PTCLDY    54  53  97 S3        29.82R
S. S. MARIE    PTCLDY    58  50  75 SE3       29.83F
MUNISING         N/A     50  48  93 CALM      29.79S
$$
MIZ004>006-011>014-085-280600-
CENTRAL UPPER MICHIGAN

CITY           SKY/WX    TMP DP  RH WIND       PRES   REMARKS
MANISTIQUE     PTCLDY    50  47  89 S6        29.81S
ESCANABA       MOCLDY    55  52  89 N5        29.79S
SAWYER-GWINN   CLOUDY    57  53  87 E6        29.80F
$$
MIZ001>003-009>011-084-280600-
WESTERN UPPER MICHIGAN

CITY           SKY/WX    TMP DP  RH WIND       PRES   REMARKS
IRON MOUNTAIN  MOCLDY    58  50  75 CALM      29.79F
HOUGHTON       CLEAR     51  47  86 CALM      29.77F
COPPER HARBOR    N/A     56  52  86 SW7       29.76F
IRONWOOD       CLEAR     57  45  64 SW6       29.79F
$$

ABBREVIATIONS USED IN REMARKS
   TC - TEMPERATURE IN CELSIUS
  WCI - WIND CHILL INDEX
   HX - HEAT INDEX
  VSB - VISIBILITY





USA.gov is the U.S. government's official web portal to all federal, state and local government web resources and services.